Showing default

FLOCK 4BE 1, 60518

Orbit data source: Space-Track

FLOCK 4BE 1, 60518 is a payload satellite owned by Planet (US) in SSO that was launched on Fri, 16 Aug 2024 UTC via an FALCON 9 launch vehicle from the Air Force Western Test Range (AFWTR). Payload-class satellites include a variety of spacecraft equipped with specific instruments for various scientific and technological missions. These include communications satellites like Starlink; space stations such as the ISS; scientific satellites like the Hubble; Earth observation satellites from companies like Planet Labs, Umbra, and HawkEye 360; GPS; miniature CubeSats for education and research; and military/defense satellites.

Loading next visibility...
Identifier
60518, 2024-149BC
Orbit
SSO
Country
Flag of USUS
Related business
Manufacturer
Planet
Mission
Operational Commercial Imaging
Bus & Motor
CUBESAT 3U, Unknown motor
Mass
5.7 kg wet, 5.7 kg dry
Launch date (UTC)
2024-08-16 (1 year ago)
Launch vehicle
FALCON 9
Launch site
Air Force Western Test Range (AFWTR)
Object type
Payload
Rocket body
Debris
Shape & HBR
Box + 2 Pan, 1.0 m
Radar Cross Section
0.072 m², Medium (>0.1 m² and < 1m²)

Expand to show TLE details & history
Last TLE update: 23 hours ago

TLE from 23 hours ago
0 FLOCK 4BE 1
1 60518U 24149BC  25353.17269807  .00013600  00000-0  39644-3 0  9997
2 60518  97.3958  71.8043 0004353 203.8300 156.2743 15.35481778 74689
Epoch: 2025-12-19T04:08Z
TLE epoch observation values (Epoch: 2025-12-19T04:08:41.113Z)
Latitude
0.00003°
Longitude
-78.38467°
Altitude
465.327 km
Speed
7.632 km/s
True Right ascension
04h 47m 13s
True Declination
0° 00' 00"
Sunlit
Object was in full shadow at epoch
Visualization orbit readout
Latitude
Unknown
Longitude
Unknown
Altitude
Unknown
Speed
Unknown
Apparent Right ascension
Unknown
Apparent Declination
Unknown
Sunlit
N/A
Visualization observer readout
Local Sidereal Time
01:51:46
Azimuth
Unknown
Elevation
Unknown
Doppler factor
Unknown
Orbital elements
Apogee altitude
459.41 km
Perigee altitude
453.46 km
Semi-major axis
6,834.572 km
Eccentricity
0.00044
Inclination
97.3958°
RAAN
71.8043°
Arg. of periapsis
203.83°
True anomaly
156.29436°
Mean anomaly
156.2743°
Eccentric anomaly
156.28433°
Mean motion
3.84128 °/min
Orbital period
93.72 mins
BSTAR
0.00039644
Loading maneuver chart data...
Computing Atmospheric mass density...
Loading historical data...
Loading historical data...
Loading historical data...
Loading historical data...
Loading historical data...
Loading historical data...
Loading historical data...

Documentation

Showing up to 5 results
|